Погода в Канеле

Бразилия     29°19′37″S   50°46′23″W
темп.,
°C
ветер,
м/с
пор.,
м/с
влажн.,
%
обл.,
%
осадки,
мм/ч
давл.,
гПа
погр.,
м
27 февраля, сб
сб2700:00+15всв312920 0.0 1018462
03:00+15всв212970 0.0 1017469
06:00+15в28995 0.0 1018381
09:00+21в377214 0.0 1020851
12:00+24в356623 0.2 10191297
15:00+23в476733 1.7 10181079
18:00+20в49755 0.1 1018900
21:00+16в312856 0.1 1019751
28 февраля, вс
вс2800:00+14в212930 0.0 1019686
03:00+17в398232 0.0 1017942
06:00+17в298691 0.0 1018734
09:00+19в487463 0.0 1018882
12:00+24вюв365414 0.0 10171335
15:00+23юв466840 0.3 1015976
18:00+20вюв388229 0.1 1014668
21:00+17вюв3119428 0.2 1015540
1 марта, пн
пн100:00+18в3119021 0.0 1014661
03:00+16в189912 0.0 1012340
06:00+17всв139760 0.0 1013104
09:00+22всв127242 0.0 1013595
12:00+23ю227732 0.9 1012793
15:00+23ююв248617 2.8 1011854
18:00+22юв24862 1.1 1010580
21:00+17всв25998 1.2 1012184
2 марта, вт
вт200:00+16всв259922 0.0 1012157
03:00+16св129922 0.0 101159
06:00+15св12982 0.0 101240
09:00+22с25781 0.0 1014422
12:00+23ю12863 2.6 1013770
15:00+24ююв23829 4.1 1011848
18:00+22юв24908 0.9 1011387
21:00+18в279914 1.1 1014247
3 марта, ср
ср300:00+18всв269944 0.0 1015329
03:00+17всв139959 0.0 101495
06:00+16св12999 0.0 101551
09:00+22ссв23828 0.0 1016370
12:00+28юз126015 0.4 10151256
15:00+27ююв236429 1.6 10131088
18:00+22вюв259318 1.2 1013429
21:00+18всв279917 1.3 1015261